Tracking 18987 objects as of 25-Feb-2018
HD Live streaming from Space Station
objects crossing your sky now

FENGYUN 1C DEB

Track FENGYUN 1C DEB now!
10-day predictions


NORAD ID: 30883
Int'l Code: 1999-025AXV
Perigee: 773.5 km
Apogee: 941.2 km
Inclination: 98.4 °
Period: 101.9 minutes
Semi major axis: 7228 km
RCS: 0.0149 m2 (small)
Launch date: May 10, 1999
Source: People's Republic of China (PRC)
Launch site: Taiyaun Space Center, China (TSC)

Note: This is SATELLITE DEBRIS
aabbcc
Your satellite tracking list
Your tracking list is empty




NASA's NSSDC Master Catalog

Two Line Element Set (TLE):
1 30883U 99025AXV 18054.62114677  .00000033  00000-0  36321-4 0  9994
2 30883  98.3624 212.4643 0115976 113.9362 311.6447 14.12680323567501
Source of the keplerian elements: AFSPC